When you browse on this site, cookies collect data to enhance your experience and personalize the content and advertising you see.
Visit our Privacy Policy to learn more. By continuing to use the site, you agree to this use of cookies and data.
  • In Österreich
  • Länderverzeichnis
  • Für 7 Tage
  • Wassertemperatur
  • Wetterkarte
  • News
  • Widgets
  • user-avatar
    Anmelden

    Stündliche Wetter Tegu

    Heute, 2 April, Donnerstag

    Zeit Temperatur Niederschläge Wind Luftdruck Luftfeuchtigkeit
    00:00 +6°C° 0 mm 2 m/S 757 mmHg 47%
    01:00 +6°C° 0 mm 2 m/S 758 mmHg 53%
    02:00 +6°C° 0 mm 1 m/S 758 mmHg 59%
    03:00 +6°C° 0 mm 1 m/S 759 mmHg 66%
    04:00 +6°C° 0 mm 1 m/S 759 mmHg 67%
    05:00 +6°C° 0 mm 1 m/S 760 mmHg 69%
    06:00 +5°C° 0 mm 1 m/S 760 mmHg 70%
    07:00 +7°C° 0 mm 1 m/S 760 mmHg 62%
    08:00 +10°C° 0 mm 1 m/S 761 mmHg 54%
    09:00 +12°C° 0 mm 1 m/S 761 mmHg 45%
    10:00 +13°C° 0 mm 1 m/S 761 mmHg 39%
    11:00 +15°C° 0 mm 1 m/S 761 mmHg 33%
    12:00 +18°C° 0 mm 1 m/S 761 mmHg 26%
    13:00 +19°C° 0 mm 1 m/S 760 mmHg 25%
    14:00 +19°C° 0 mm 1 m/S 760 mmHg 23%
    15:00 +20°C° 0 mm 1 m/S 760 mmHg 22%
    16:00 +19°C° 0 mm 1 m/S 760 mmHg 26%
    17:00 +18°C° 0 mm 1 m/S 760 mmHg 30%
    18:00 +16°C° 0 mm 2 m/S 760 mmHg 34%
    19:00 +15°C° 0 mm 1 m/S 760 mmHg 39%
    20:00 +13°C° 0 mm 1 m/S 760 mmHg 45%
    21:00 +11°C° 0 mm 1 m/S 761 mmHg 50%
    22:00 +10°C° 0 mm 1 m/S 761 mmHg 50%
    23:00 +10°C° 0 mm 1 m/S 761 mmHg 51%

    Morgen, 3 April, Freitag

    Zeit Temperatur Niederschläge Wind Luftdruck Luftfeuchtigkeit
    00:00 +9°C° 0 mm 0 m/S 761 mmHg 51%
    01:00 +9°C° 0 mm 1 m/S 761 mmHg 51%
    02:00 +9°C° 0 mm 1 m/S 761 mmHg 51%
    03:00 +9°C° 0 mm 1 m/S 761 mmHg 51%
    04:00 +8°C° 0 mm 1 m/S 760 mmHg 51%
    05:00 +8°C° 0 mm 1 m/S 760 mmHg 51%
    06:00 +8°C° 0 mm 1 m/S 760 mmHg 51%
    07:00 +9°C° 0 mm 1 m/S 760 mmHg 44%
    08:00 +11°C° 0 mm 1 m/S 760 mmHg 36%
    09:00 +13°C° 0 mm 2 m/S 761 mmHg 28%
    10:00 +14°C° 0 mm 2 m/S 760 mmHg 26%
    11:00 +16°C° 0 mm 2 m/S 760 mmHg 23%
    12:00 +17°C° 0 mm 2 m/S 760 mmHg 21%
    13:00 +18°C° 0 mm 2 m/S 759 mmHg 22%
    14:00 +18°C° 0 mm 2 m/S 759 mmHg 22%
    15:00 +19°C° 0 mm 2 m/S 758 mmHg 23%
    16:00 +18°C° 0 mm 3 m/S 758 mmHg 28%
    17:00 +17°C° 0 mm 3 m/S 758 mmHg 32%
    18:00 +16°C° 0 mm 3 m/S 758 mmHg 36%
    19:00 +13°C° 0 mm 3 m/S 758 mmHg 38%
    20:00 +12°C° 0 mm 2 m/S 759 mmHg 40%
    21:00 +11°C° 0 mm 1 m/S 759 mmHg 42%
    22:00 +10°C° 0 mm 1 m/S 759 mmHg 43%
    23:00 +9°C° 0 mm 1 m/S 759 mmHg 45%

    übermorgen, 4 April, Samstag

    Zeit Temperatur Niederschläge Wind Luftdruck Luftfeuchtigkeit
    00:00 +9°C° 0 mm 1 m/S 759 mmHg 46%
    01:00 +8°C° 0 mm 1 m/S 758 mmHg 47%
    02:00 +8°C° 0 mm 1 m/S 758 mmHg 48%
    03:00 +7°C° 0 mm 1 m/S 758 mmHg 49%
    04:00 +7°C° 0 mm 1 m/S 758 mmHg 49%
    05:00 +7°C° 0 mm 1 m/S 758 mmHg 50%
    06:00 +6°C° 0 mm 1 m/S 758 mmHg 51%
    07:00 +8°C° 0 mm 1 m/S 758 mmHg 49%
    08:00 +9°C° 0 mm 2 m/S 758 mmHg 48%
    09:00 +12°C° 0 mm 2 m/S 758 mmHg 46%
    10:00 +12°C° 0 mm 3 m/S 758 mmHg 38%
    11:00 +14°C° 0 mm 4 m/S 758 mmHg 29%
    12:00 +15°C° 0 mm 5 m/S 758 mmHg 20%
    13:00 +15°C° 0 mm 5 m/S 758 mmHg 19%
    14:00 +14°C° 0 mm 5 m/S 758 mmHg 18%
    15:00 +14°C° 0 mm 5 m/S 758 mmHg 17%
    16:00 +13°C° 0 mm 5 m/S 758 mmHg 19%
    17:00 +12°C° 0 mm 5 m/S 759 mmHg 21%
    18:00 +9°C° 0 mm 5 m/S 759 mmHg 24%
    19:00 +8°C° 0 mm 4 m/S 760 mmHg 28%
    20:00 +7°C° 0 mm 3 m/S 760 mmHg 32%
    21:00 +5°C° 0 mm 2 m/S 761 mmHg 36%
    22:00 +5°C° 0 mm 2 m/S 761 mmHg 37%
    23:00 +4°C° 0 mm 2 m/S 761 mmHg 37%

    5 April, Sonntag

    Zeit Temperatur Niederschläge Wind Luftdruck Luftfeuchtigkeit
    00:00 +4°C° 0 mm 2 m/S 761 mmHg 38%
    01:00 +4°C° 0 mm 2 m/S 761 mmHg 39%
    02:00 +3°C° 0 mm 2 m/S 761 mmHg 40%
    03:00 +3°C° 0 mm 2 m/S 761 mmHg 41%
    04:00 +3°C° 0 mm 1 m/S 761 mmHg 42%
    05:00 +3°C° 0 mm 1 m/S 761 mmHg 43%
    06:00 +2°C° 0 mm 1 m/S 761 mmHg 44%
    07:00 +3°C° 0 mm 2 m/S 761 mmHg 38%
    08:00 +5°C° 0 mm 2 m/S 761 mmHg 32%
    09:00 +7°C° 0 mm 2 m/S 761 mmHg 25%
    10:00 +9°C° 0 mm 3 m/S 761 mmHg 24%
    11:00 +10°C° 0 mm 3 m/S 761 mmHg 22%
    12:00 +12°C° 0 mm 3 m/S 761 mmHg 20%
    13:00 +13°C° 0 mm 4 m/S 760 mmHg 20%
    14:00 +14°C° 0 mm 4 m/S 760 mmHg 19%
    15:00 +14°C° 0 mm 4 m/S 760 mmHg 19%
    16:00 +14°C° 0 mm 4 m/S 759 mmHg 22%
    17:00 +13°C° 0 mm 4 m/S 759 mmHg 25%
    18:00 +12°C° 0 mm 3 m/S 759 mmHg 28%
    19:00 +10°C° 0 mm 3 m/S 760 mmHg 31%
    20:00 +8°C° 0 mm 2 m/S 760 mmHg 33%
    21:00 +8°C° 0 mm 1 m/S 761 mmHg 36%
    22:00 +7°C° 0 mm 1 m/S 761 mmHg 37%
    23:00 +7°C° 0 mm 1 m/S 761 mmHg 38%

    6 April, Montag

    Zeit Temperatur Niederschläge Wind Luftdruck Luftfeuchtigkeit
    00:00 +6°C° 0 mm 0 m/S 761 mmHg 39%
    01:00 +5°C° 0 mm 0 m/S 761 mmHg 40%
    02:00 +5°C° 0 mm 0 m/S 761 mmHg 41%
    03:00 +4°C° 0 mm 0 m/S 761 mmHg 43%
    04:00 +4°C° 0 mm 0 m/S 760 mmHg 44%
    05:00 +4°C° 0 mm 0 m/S 760 mmHg 45%
    06:00 +3°C° 0 mm 0 m/S 760 mmHg 45%
    07:00 +6°C° 0 mm 0 m/S 760 mmHg 40%
    08:00 +9°C° 0 mm 1 m/S 761 mmHg 36%
    09:00 +12°C° 0 mm 1 m/S 761 mmHg 31%
    10:00 +13°C° 0 mm 1 m/S 760 mmHg 28%
    11:00 +15°C° 0 mm 2 m/S 760 mmHg 25%
    12:00 +17°C° 0 mm 2 m/S 760 mmHg 22%
    13:00 +18°C° 0 mm 2 m/S 759 mmHg 22%
    14:00 +18°C° 0 mm 3 m/S 759 mmHg 22%
    15:00 +19°C° 0 mm 3 m/S 758 mmHg 23%
    16:00 +18°C° 0 mm 3 m/S 758 mmHg 26%
    17:00 +17°C° 0 mm 2 m/S 758 mmHg 30%
    18:00 +17°C° 0 mm 2 m/S 758 mmHg 34%
    19:00 +15°C° 0 mm 2 m/S 758 mmHg 37%
    20:00 +13°C° 0 mm 1 m/S 758 mmHg 40%
    21:00 +12°C° 0 mm 1 m/S 759 mmHg 43%
    22:00 +11°C° 0 mm 1 m/S 759 mmHg 46%
    23:00 +10°C° 0 mm 1 m/S 759 mmHg 48%

    7 April, Dienstag

    Zeit Temperatur Niederschläge Wind Luftdruck Luftfeuchtigkeit
    00:00 +10°C° 0 mm 1 m/S 759 mmHg 51%
    01:00 +9°C° 0 mm 1 m/S 758 mmHg 51%
    02:00 +9°C° 0 mm 1 m/S 758 mmHg 52%
    03:00 +9°C° 0 mm 1 m/S 758 mmHg 52%
    04:00 +9°C° 0 mm 1 m/S 758 mmHg 52%
    05:00 +8°C° 0 mm 1 m/S 758 mmHg 53%
    06:00 +8°C° 0 mm 1 m/S 759 mmHg 53%
    07:00 +10°C° 0 mm 1 m/S 759 mmHg 49%
    08:00 +12°C° 0 mm 1 m/S 759 mmHg 44%
    09:00 +14°C° 0 mm 1 m/S 759 mmHg 40%
    10:00 +16°C° 0 mm 1 m/S 759 mmHg 36%
    11:00 +19°C° 0 mm 1 m/S 758 mmHg 33%
    12:00 +21°C° 0 mm 1 m/S 758 mmHg 29%
    13:00 +22°C° 0 mm 1 m/S 758 mmHg 28%
    14:00 +22°C° 0 mm 1 m/S 758 mmHg 27%
    15:00 +23°C° 0 mm 2 m/S 757 mmHg 25%
    16:00 +22°C° 0 mm 1 m/S 757 mmHg 28%
    17:00 +21°C° 0 mm 1 m/S 757 mmHg 31%
    18:00 +20°C° 0 mm 1 m/S 757 mmHg 35%
    19:00 +18°C° 0 mm 1 m/S 758 mmHg 37%
    20:00 +16°C° 0 mm 1 m/S 758 mmHg 40%
    21:00 +14°C° 0 mm 1 m/S 758 mmHg 43%
    22:00 +13°C° 0 mm 1 m/S 758 mmHg 44%
    23:00 +13°C° 0 mm 1 m/S 758 mmHg 45%
    Mehr zeigen